map of TJA home
TJA - Airport
Location
City:  Tarija, Cercado, Tarija, Bolivia
Name:Capitán Oriel Lea Plaza
ICAO:SLTJ
IATA:TJA

Details
Type:Airport (Aerodrome, Airfield)
Use:Public/Civil, Military
Latitude:21°33'21"S (-21.555735)
Longitude:64°42'05"W (-64.701324)
Datum:WGS 1984
Elevation:6084 ft (1854 m)
Variation:9.69°W (WMM2015v2 magnetic declination)
-0.21° annual change
Runways:1
Longest:10007 × 148 ft (3050 × 45 m), paved

Time
Time Zone:UTC-4
Local Time:

Weather
METAR:SLTJ 041400Z 13005KT 9999 SCT023 BKN200 19/14 Q1027
TAF:SLTJ 041000Z 0412/0512 00000KT 9999 BKN023 OVC070 TX23/0419Z TN12/0510Z
BECMG 0414/0417 13010KT SCT027 BKN070 PROB40
TEMPO 0418/0421 6000 TSRA FEW033CB
BECMG 0502/0504 00000KT BKN027 OVC070

Related Locations
Nearby:
Farthest:VHSK: 12341 mi / 19860 km
Shek Kong Camp [Sek Kong], HK

Find:

   beyond  
but within

Other Information
Maps:
NOTAMs:
Links:
Sources:

  
  • flag of Bolivia
  • flag of Tarija
  

Sectional Chart

Flight Planning
at skyvector.com

Satellite Image

Google Maps Satellite view

 

Copyright © 2004-2019 Karl L. Swartz. All rights reserved.
The Great Circle Mapper name and logo are trademarks of the Great Circle Mapper.
All other trademarks mentioned herein belong to their respective owners.
Please see credits for attibutions and further copyright information.

  Follow gcmap on Facebook Follow gcmap on Twitter GCmap on LinkedIn

hCard Microformat

Geo Microformat